RH
76 76 77 76 75 73 70 65 62 60 60 60 60 61 62 63 65 66 64 61 59 58 59 59 59 58 56 53 50 46 42 41 42 43 44 45 45 44 41 38 36 33 32 35 39 44 48 50 52 54 55 56 57 56 53 47 40 34 29 27 28 30 34 36 39 41 38 35 33 31 30 29 29 28 27 26 24 23 22 22 22 23 24 24 23 22 22 20 20 20 21 21 22 23 24 24 24 24 23 22 21 22 21
77 77 77 77 77 75 73 70 67 65 63 62 60 59 60 61 63 64 63 61 59 59 59 60 60 59 58 56 54 51 46 43 43 44 45 45 44 43 40 37 34 32 30 32 37 41 45 48 51 53 54 55 56 56 54 48 41 35 29 27 28 33 38 41 41 40 36 34 31 30 29 28 28 28 27 26 24 23 22 22 22 23 24 23 23 22 21 20 19 20 21 23 24 23 22 22 21 20 20 20 20 20 21
78 78 78 78 78 77 76 74 72 69 67 64 61 59 58 59 61 62 63 61 59 59 59 60 60 60 59 58 57 54 50 45 44 44 45 45 44 43 40 37 34 31 29 31 34 38 42 45 48 51 54 55 56 56 55 49 42 35 29 27 29 33 40 39 37 34 33 32 30 29 29 27 26 27 27 26 24 22 22 22 22 23 23 23 23 21 20 19 19 20 23 24 24 23 20 20 20 19 18 19 19 20 21
79 79 79 79 79 79 78 76 75 73 71 67 64 61 58 58 59 60 61 60 59 59 60 61 61 61 60 59 58 57 54 48 45 44 45 45 44 43 41 38 35 32 30 31 34 36 39 43 46 50 53 54 55 56 55 50 43 36 29 27 29 32 35 34 33 32 32 31 30 29 29 27 26 26 27 26 24 22 21 21 21 22 23 23 22 21 20 20 21 22 23 22 21 20 19 19 19 18 18 19 19 20 21
79 81 82 80 80 80 79 79 77 76 74 71 67 63 60 58 57 58 59 59 59 60 62 63 63 62 61 59 59 58 57 51 46 44 44 45 45 44 42 39 36 33 32 33 34 36 37 41 44 48 51 53 54 55 54 49 43 36 30 27 28 31 33 33 33 32 32 32 32 31 30 28 27 27 27 26 23 21 19 20 20 21 23 23 22 22 22 23 24 24 23 21 19 18 18 18 18 18 19 19 20 20 21
77 81 83 80 80 80 80 80 79 78 77 74 70 66 62 59 57 57 58 58 59 60 62 63 63 63 62 59 59 59 60 53 48 44 44 45 45 44 42 39 37 35 35 35 35 35 36 39 42 46 49 52 53 54 53 47 42 36 31 27 27 29 31 32 33 33 33 33 32 32 31 30 29 28 27 26 23 21 18 19 19 21 22 23 23 23 23 25 25 24 23 19 18 18 18 18 18 19 19 20 20 21 21
73 79 83 80 79 79 80 81 81 80 79 76 73 69 65 61 58 57 57 58 60 61 62 63 63 63 61 59 59 60 61 55 48 45 44 45 45 44 41 39 38 37 38 37 36 35 36 38 40 43 47 49 51 52 51 45 41 36 31 28 26 27 28 30 32 33 33 32 32 32 33 32 31 29 27 25 23 21 18 19 20 22 24 25 25 25 24 25 24 22 20 18 18 18 18 18 18 19 20 20 21 21 21
70 77 81 81 80 79 81 82 83 82 80 78 76 73 68 64 60 57 57 59 60 61 62 63 63 62 60 59 59 60 62 55 48 45 45 45 44 42 39 38 38 38 40 39 38 37 36 37 39 41 44 47 50 51 49 45 40 35 31 28 26 26 27 29 30 31 31 31 31 32 32 32 30 28 26 24 22 20 19 20 21 24 26 27 27 26 26 24 22 19 18 18 18 18 18 18 19 20 20 20 21 21 21
66 74 79 80 81 82 83 84 83 83 82 80 78 76 72 67 62 59 58 59 60 61 63 63 62 61 59 59 60 61 63 56 49 44 44 43 42 40 37 37 38 39 41 41 40 38 37 38 39 40 42 45 48 50 49 45 39 34 29 28 26 26 27 29 30 30 30 28 29 30 31 30 29 27 24 23 22 22 20 21 23 25 27 26 26 25 25 22 20 18 18 18 18 18 18 18 18 19 19 20 20 21 21
61 70 77 80 81 83 86 86 85 84 83 82 81 79 76 71 66 62 60 59 60 61 62 63 62 60 59 59 60 61 63 56 48 42 42 41 39 37 36 36 37 39 42 42 41 40 40 40 40 40 40 42 45 48 49 44 38 33 28 27 26 26 26 29 30 31 30 28 28 29 29 28 26 25 23 22 21 21 20 21 23 25 25 25 25 24 22 20 19 18 18 18 18 18 18 18 18 18 19 19 20 20 21
58 67 76 79 82 85 87 87 86 85 85 83 82 81 79 75 71 67 63 61 60 60 61 61 61 60 58 59 60 61 61 54 46 40 40 38 36 35 35 35 36 38 42 43 43 42 43 43 42 40 39 39 42 45 47 43 38 32 26 26 25 25 26 28 30 32 32 30 29 29 29 28 27 25 23 23 22 21 20 21 23 23 24 24 24 23 20 19 18 18 18 18 18 17 17 18 18 18 18 19 19 20 20
54 63 72 78 82 84 86 87 87 86 85 84 84 83 83 80 77 73 68 64 62 61 60 60 59 59 58 59 59 60 58 51 44 40 38 35 34 34 34 34 35 38 42 44 45 45 46 46 44 41 38 37 39 42 45 42 36 31 26 25 25 25 26 28 30 32 32 32 32 31 31 29 28 26 23 23 22 21 21 21 22 22 22 22 22 21 19 18 18 18 18 18 18 17 17 17 18 18 18 19 19 19 19
50 59 69 75 80 82 82 86 87 86 85 85 85 85 84 83 80 77 72 69 66 63 61 60 59 59 59 59 59 58 55 49 43 40 36 33 33 33 34 34 35 37 41 44 46 48 49 48 45 42 38 36 36 39 43 40 36 31 26 25 25 26 27 29 32 34 34 35 35 34 32 30 28 26 24 24 22 21 21 21 21 21 21 21 20 19 18 18 18 18 18 18 17 17 17 17 17 18 18 18 18 19 19
46 55 64 72 79 82 83 85 86 86 85 86 86 86 86 84 82 79 76 74 70 67 63 61 60 60 61 61 60 58 52 46 42 39 35 32 32 33 35 35 35 36 41 45 48 50 51 49 46 42 38 35 35 38 42 40 35 30 26 25 26 27 29 31 34 37 38 38 38 36 33 31 29 27 26 24 23 22 22 22 21 21 21 20 19 18 18 18 17 18 18 17 17 17 17 17 17 17 18 18 18 18 18
43 51 59 70 80 85 86 84 84 84 84 86 86 87 87 86 84 82 79 78 74 70 67 63 62 62 62 61 60 57 51 45 41 37 34 32 32 34 36 36 35 36 40 45 49 51 51 49 46 42 38 35 34 36 41 39 35 30 26 25 27 29 31 32 34 37 40 40 39 36 33 31 30 28 26 25 23 22 22 22 22 21 21 19 19 18 17 17 17 17 17 17 17 17 17 17 17 17 17 17 17 18 18
41 47 54 68 79 86 88 86 84 82 83 84 86 88 89 87 85 84 82 80 77 74 70 67 65 64 64 62 60 57 50 44 40 36 34 33 33 35 37 37 35 35 41 46 49 50 50 48 45 42 38 35 34 35 39 38 35 30 26 25 27 30 31 32 35 38 41 40 38 36 33 32 31 30 28 25 24 23 23 23 22 21 20 19 18 17 17 17 17 17 17 17 16 16 16 16 17 16 17 17 17 17 17
39 45 51 62 75 86 88 85 83 81 81 82 84 87 89 88 87 85 83 82 80 76 73 70 68 66 65 63 60 55 50 44 39 36 35 35 35 36 38 37 35 35 41 45 48 49 48 46 44 42 38 35 34 35 38 37 34 30 26 26 27 30 31 33 36 40 40 39 36 34 33 32 32 31 29 27 25 24 23 23 22 21 19 18 17 17 17 17 17 17 17 16 16 16 16 16 16 16 16 16 16 16 16
38 43 48 58 70 82 88 84 82 80 80 79 81 83 87 87 87 86 85 84 82 78 75 72 70 68 66 64 60 55 49 43 39 37 37 37 37 37 38 36 35 35 41 45 47 47 45 44 43 41 38 35 34 34 36 35 33 30 26 26 28 31 33 34 37 38 37 36 34 33 32 33 32 32 31 29 27 25 24 23 22 21 19 18 17 17 17 17 17 17 16 16 16 16 16 16 16 16 16 16 16 16 16
38 42 47 54 65 77 89 85 82 79 78 78 79 80 83 85 87 87 87 85 83 80 76 74 71 69 67 66 62 56 49 43 39 38 38 38 38 38 37 35 34 35 41 44 45 45 43 42 41 40 38 36 35 34 35 34 31 29 26 26 29 32 35 36 35 35 34 34 33 33 32 33 33 32 32 31 28 26 24 23 22 21 19 18 17 17 17 17 16 17 17 17 16 16 16 16 16 16 15 15 15 16 16
38 43 46 51 61 74 88 87 82 78 77 77 78 79 81 84 86 87 87 85 83 81 77 75 73 70 68 67 63 57 50 43 39 38 37 38 37 37 36 34 34 35 40 43 44 42 40 40 40 39 38 36 35 34 34 32 30 28 26 26 28 31 34 35 34 33 33 33 33 33 32 33 33 33 33 32 29 26 23 22 22 21 20 19 18 17 17 17 17 17 17 17 17 17 17 16 16 16 16 15 15 15 16
39 44 46 49 57 70 86 88 84 80 77 78 78 79 82 84 86 88 87 85 84 82 80 77 74 72 69 68 65 59 50 44 40 37 37 37 36 36 35 33 33 35 39 42 42 40 38 38 38 38 38 36 35 35 34 31 29 27 26 26 27 30 33 34 34 33 33 34 34 33 33 33 33 33 33 33 31 28 24 23 22 22 21 19 18 17 17 17 17 17 17 17 17 17 17 17 17 16 16 16 15 15 16
39 45 46 48 54 65 80 86 86 83 79 78 79 81 83 84 86 87 88 86 85 83 82 78 75 72 71 70 66 60 51 44 39 37 36 35 35 34 33 32 32 34 38 41 40 38 36 36 37 37 37 36 35 34 33 30 28 27 26 26 27 29 31 33 33 33 33 34 34 33 33 33 33 33 33 33 32 29 26 24 23 23 22 20 19 18 17 17 17 17 17 18 18 18 18 17 17 17 16 16 16 16 16
39 46 47 48 51 59 72 82 86 86 81 81 82 83 84 85 87 89 89 86 84 83 83 79 75 71 72 71 67 61 51 44 39 35 34 35 34 33 32 31 32 34 38 39 38 36 34 35 36 36 36 36 35 33 32 29 28 27 26 26 27 29 30 32 33 33 33 34 34 33 33 33 33 33 34 33 32 31 28 26 24 24 23 21 19 18 17 17 18 18 18 18 18 18 18 18 18 17 17 17 17 17 16
38 46 48 48 49 54 64 78 86 88 85 84 83 83 82 86 89 89 87 85 83 82 82 79 75 72 72 71 68 61 51 44 38 35 34 34 34 32 31 31 32 35 38 38 37 34 33 34 34 35 35 35 34 33 31 29 27 26 26 26 27 28 30 32 33 33 33 33 33 33 33 33 33 33 34 34 33 31 31 28 27 25 24 22 20 19 18 18 18 18 18 18 18 18 18 18 18 18 18 18 18 17 16
37 45 48 48 49 51 58 73 83 89 89 87 84 81 80 85 87 87 85 83 81 80 80 78 75 72 73 71 67 60 51 43 38 36 36 35 34 32 31 31 33 35 37 37 35 32 32 33 33 34 33 33 32 31 29 27 26 26 26 26 26 28 29 31 32 33 33 33 32 32 33 33 33 34 34 34 33 32 32 31 29 27 25 23 21 20 20 19 19 19 19 19 19 19 19 18 18 19 19 19 18 17 16
36 43 47 48 49 50 55 68 81 89 91 88 84 80 79 83 85 84 82 81 79 78 77 76 75 73 73 71 66 59 50 43 39 38 38 37 34 32 31 33 34 36 36 35 32 31 31 32 33 33 32 31 30 29 28 26 25 24 25 25 26 26 27 29 31 32 32 32 31 31 32 33 33 34 34 34 34 33 32 32 31 29 26 24 22 21 21 20 20 20 19 19 19 19 19 19 19 19 21 20 19 18 17
35 42 46 48 48 49 52 66 80 90 91 89 85 81 81 84 84 83 81 80 78 77 74 76 75 74 74 71 65 58 50 44 41 39 38 39 36 33 32 34 36 37 36 34 32 31 31 32 32 32 30 29 29 28 27 25 24 23 24 25 25 25 26 28 29 30 31 31 30 30 30 32 33 34 34 34 34 33 33 33 32 30 27 25 23 23 22 21 21 20 20 20 20 20 19 20 21 22 23 21 19 18 18
34 40 45 47 48 48 50 63 78 90 92 91 87 83 82 86 86 84 80 79 77 75 72 74 75 75 74 71 65 58 50 45 42 40 39 40 39 37 34 36 38 38 37 35 33 31 31 31 31 31 29 28 28 28 27 25 24 23 23 23 24 24 25 26 27 28 30 30 30 30 29 31 33 33 34 34 34 34 33 34 34 31 28 26 24 24 23 22 21 21 21 20 20 20 20 22 23 23 23 21 20 19 18
32 39 44 46 47 47 48 63 79 91 93 91 88 85 84 88 87 84 79 78 76 75 72 74 75 75 75 71 65 57 51 46 43 41 40 41 42 41 38 39 40 40 39 36 33 31 30 30 30 29 29 28 28 27 27 25 24 23 22 22 22 22 23 25 26 27 29 29 31 31 30 31 32 33 34 34 34 34 34 34 34 32 28 27 25 24 23 23 22 21 21 21 22 23 24 25 25 24 23 22 21 20 19
31 37 42 45 46 46 47 61 78 91 92 89 88 87 86 87 86 84 80 77 75 75 74 74 75 75 76 71 65 57 51 46 43 42 42 43 44 45 43 41 40 40 39 35 33 31 29 29 28 28 28 28 28 28 27 26 24 22 21 20 20 21 22 24 26 28 30 31 31 32 32 30 32 33 34 34 34 34 34 34 34 33 29 28 26 25 24 23 22 22 21 22 24 26 28 27 26 25 23 22 21 20 20
29 35 40 43 45 45 46 60 76 87 87 86 87 88 87 88 86 83 79 76 75 75 75 75 75 75 75 71 64 57 51 47 44 43 43 44 46 47 45 41 40 39 38 35 32 30 27 26 25 26 29 29 29 28 27 25 24 22 20 20 20 21 22 26 28 29 31 31 31 32 32 31 31 32 34 34 33 33 34 34 34 33 30 29 27 25 24 23 23 23 23 26 27 29 29 27 26 24 23 22 21 20 20
27 33 39 41 43 44 45 60 76 87 87 86 87 87 86 89 86 82 78 76 75 76 76 75 75 74 75 70 63 56 50 47 44 43 44 46 48 48 45 40 39 39 36 34 32 29 26 23 24 27 29 30 29 28 27 25 23 21 21 20 21 23 26 28 29 30 31 31 31 31 31 31 31 32 33 34 33 33 35 35 35 34 31 29 28 26 25 25 25 26 27 29 30 31 30 27 25 24 23 22 21 21 21
27 32 37 40 41 43 45 59 78 91 90 88 86 86 87 89 87 83 79 77 77 77 78 76 75 74 74 70 62 55 50 47 45 44 45 47 49 48 44 40 38 37 35 33 31 29 25 22 24 27 29 30 29 27 26 25 23 22 22 22 23 25 29 30 30 30 31 31 31 32 32 32 32 32 33 33 33 34 36 36 36 35 32 30 29 28 28 28 28 29 30 32 32 31 29 27 25 24 23 22 21 21 20
26 31 36 38 40 42 44 57 75 89 89 86 84 85 89 91 90 87 82 80 79 78 79 78 77 76 74 69 61 54 50 48 46 46 46 48 48 47 43 40 38 36 34 33 31 28 24 22 24 27 28 29 28 27 25 24 23 22 24 25 24 25 29 30 30 30 31 31 31 32 32 33 33 34 34 34 35 36 36 36 36 35 34 31 30 30 31 32 32 32 32 32 32 30 28 26 24 23 22 22 21 20 19
26 31 35 37 39 41 43 52 69 82 83 82 83 87 93 94 93 90 86 84 82 81 80 79 78 77 75 68 60 54 51 49 47 47 47 48 47 45 42 39 36 34 33 33 31 28 23 23 24 27 28 28 28 27 24 24 23 22 24 27 26 25 27 29 30 30 30 29 31 32 33 34 34 34 35 35 36 36 36 36 36 36 35 32 30 29 29 31 31 31 31 30 30 28 26 24 23 22 22 21 20 19 18
26 31 35 36 38 40 43 50 60 70 75 77 83 90 94 94 93 91 89 86 84 82 80 79 79 78 76 67 60 54 51 49 48 47 47 47 46 43 40 37 35 33 33 32 31 29 25 24 25 27 27 27 27 26 24 23 22 22 23 26 28 28 27 28 29 29 29 28 29 30 33 34 34 35 35 36 36 36 36 37 37 36 34 31 29 28 27 28 28 28 28 28 27 26 24 23 22 22 21 20 20 18 17
27 31 34 35 37 39 42 49 56 63 68 74 83 91 94 94 93 92 90 88 85 82 80 79 79 78 75 67 59 54 51 49 48 47 46 46 44 41 38 35 34 33 33 33 31 29 26 26 26 27 27 27 26 26 24 23 21 21 21 25 27 29 28 29 29 29 28 27 27 28 31 33 34 35 36 36 36 37 37 37 37 36 34 31 30 28 27 26 26 26 25 25 24 24 23 23 22 22 21 20 18 17 16
27 31 34 35 36 38 42 48 53 59 66 75 84 91 94 94 93 91 90 88 86 83 80 79 79 78 74 66 59 54 51 49 48 46 45 44 42 40 37 34 33 32 33 33 32 30 28 27 27 27 27 26 26 25 24 23 21 20 19 22 25 28 29 29 29 29 28 28 27 28 30 32 34 35 36 36 37 37 37 37 37 35 33 32 30 29 27 26 26 25 25 24 24 24 24 24 23 22 21 20 18 17 16
28 31 33 34 35 37 40 47 52 58 66 77 86 92 94 94 92 91 89 88 86 83 79 78 78 77 72 65 59 55 52 50 48 47 45 44 41 39 36 33 32 32 32 32 32 31 29 28 28 27 27 26 26 25 25 24 22 21 19 20 23 26 28 30 30 30 29 29 29 29 32 33 34 36 36 37 37 37 37 37 36 35 33 32 31 30 28 27 27 26 26 26 26 26 26 26 25 23 22 20 19 18 18
28 31 33 34 35 36 39 46 51 58 69 82 90 93 94 93 91 90 88 88 87 84 79 78 78 76 71 65 59 56 53 51 49 47 45 43 41 38 36 34 32 32 32 32 32 32 30 29 28 28 27 26 26 25 25 25 24 22 20 20 21 24 27 29 30 31 30 30 30 30 34 35 36 36 37 37 37 37 37 37 36 34 33 32 31 30 29 28 28 28 28 27 27 27 27 27 25 24 23 22 21 20 20
28 30 32 34 34 36 39 46 52 60 75 87 92 94 94 93 91 89 87 88 87 84 80 78 77 75 71 65 60 56 54 52 50 48 46 43 40 38 35 33 32 31 31 32 33 32 31 30 29 28 27 27 26 26 26 26 25 24 22 20 20 22 25 26 28 30 31 31 30 31 35 36 36 36 37 37 37 37 37 36 35 34 33 32 30 29 29 28 28 28 28 28 28 28 27 26 25 24 23 23 23 22 21
28 30 32 33 34 35 38 45 53 64 82 91 94 94 94 92 90 88 87 88 87 85 81 79 77 75 71 65 60 57 54 53 51 48 45 43 40 38 35 33 32 32 31 32 33 33 31 30 30 29 28 27 27 26 27 27 27 26 24 22 21 22 24 25 27 28 30 31 30 30 33 35 36 36 36 36 37 36 36 35 34 34 33 32 30 29 27 27 27 27 28 28 27 26 26 24 23 23 22 24 25 25 23
28 30 32 33 33 34 37 46 56 69 88 93 95 94 93 91 89 88 87 87 86 85 82 79 78 76 72 66 62 58 56 53 51 48 45 42 40 37 35 33 32 32 31 32 33 33 32 31 30 30 29 28 28 27 28 29 28 27 26 24 22 22 24 25 26 28 30 31 30 29 29 33 34 35 36 36 35 35 34 34 34 34 33 32 31 29 26 25 25 25 26 26 25 24 23 21 23 24 23 25 26 25 24
28 29 31 32 33 34 37 47 61 76 91 94 95 94 93 90 88 87 87 86 86 84 82 80 78 77 73 68 64 60 57 54 51 48 45 42 39 37 34 33 32 32 31 32 32 32 32 32 31 30 30 29 28 28 29 29 29 28 27 26 25 24 24 25 27 29 30 31 30 28 27 29 31 33 34 34 34 33 33 33 34 34 34 33 31 28 26 24 24 24 24 24 23 21 19 19 22 25 25 25 26 26 24
28 29 30 32 33 35 38 51 68 84 94 93 94 93 93 90 88 86 86 86 85 84 82 80 79 78 74 69 65 62 59 56 52 48 45 42 39 36 33 32 32 32 31 32 32 32 32 33 32 31 31 30 30 30 30 29 29 29 29 28 27 26 25 26 27 29 30 30 29 28 27 27 29 31 32 32 32 32 33 33 34 35 34 32 30 28 25 24 23 23 23 22 21 19 17 17 20 25 27 26 26 26 24
28 29 30 31 33 35 41 56 74 89 94 93 92 92 91 89 87 85 84 85 84 83 82 80 80 79 75 70 67 64 61 57 53 49 45 41 38 35 33 32 31 32 32 32 32 32 33 33 33 32 32 31 31 31 31 30 30 30 30 30 30 29 27 27 27 28 29 30 30 29 29 30 31 32 33 33 33 33 34 34 35 34 33 31 28 26 24 23 22 22 21 20 19 18 16 17 20 24 28 26 25 25 23
28 29 30 31 33 37 43 62 80 92 93 92 91 90 87 85 84 84 83 83 84 83 81 79 80 79 76 72 68 66 63 58 54 49 45 41 37 34 32 31 32 32 32 32 33 33 33 34 34 34 33 32 32 32 32 32 32 33 32 33 32 31 30 29 28 28 29 30 31 32 33 34 35 35 35 35 35 35 35 35 34 33 31 29 27 25 23 22 22 21 20 19 18 17 16 17 20 24 28 26 24 23 23
29 30 31 32 34 38 46 65 82 92 93 92 91 87 82 79 80 81 80 82 82 81 79 78 79 79 76 73 70 66 63 59 54 49 44 40 36 33 31 31 32 32 33 33 33 33 34 35 35 35 34 34 33 33 33 34 35 35 35 35 34 34 32 31 29 29 29 31 33 34 35 36 36 36 36 36 36 35 35 34 32 30 29 27 25 24 23 22 21 20 19 18 18 17 16 16 20 24 27 26 24 23 24
29 30 31 33 35 40 49 69 84 93 93 92 90 85 77 75 77 80 80 82 82 80 77 77 77 77 75 72 70 67 63 58 53 48 43 40 37 33 31 31 32 33 33 34 34 34 34 36 36 36 35 35 34 34 34 35 36 36 36 36 36 35 35 33 31 30 30 31 32 34 35 35 36 35 35 35 34 33 32 31 30 28 27 26 25 23 22 21 20 19 19 18 18 17 16 16 20 23 26 25 23 23 24
29 31 33 34 36 42 54 72 85 93 93 91 88 83 76 76 78 81 82 84 83 80 76 75 75 76 75 73 70 68 64 59 53 47 43 40 37 34 33 33 33 33 34 34 34 35 35 36 36 36 36 35 34 34 33 34 35 36 36 36 36 35 35 34 33 32 31 31 32 33 33 33 33 33 33 32 31 30 29 28 27 27 26 25 24 23 22 21 20 19 19 18 18 17 16 16 19 22 23 23 23 23 24
30 32 34 35 38 45 58 75 87 93 94 91 88 83 79 80 82 83 86 86 83 80 75 74 74 74 75 74 72 69 66 60 53 47 44 39 36 34 34 34 34 35 36 36 36 36 36 36 36 36 36 35 35 34 33 34 34 35 36 36 35 35 35 35 34 33 33 33 33 33 33 33 32 32 31 31 30 29 27 27 26 26 25 25 24 23 22 20 20 19 19 18 18 17 16 16 17 19 20 21 22 22 24
31 34 35 36 39 47 62 77 87 92 93 91 88 85 84 85 86 87 89 87 84 80 75 73 73 74 75 75 74 72 68 62 54 47 43 39 36 34 34 34 35 36 37 38 38 37 37 36 36 36 36 36 36 35 34 34 33 34 34 34 33 33 33 33 33 33 33 33 33 33 33 32 32 32 32 31 30 28 27 26 26 25 25 24 23 22 21 20 20 19 19 18 17 17 16 15 16 18 19 20 21 23 24
32 35 37 37 41 50 65 78 87 92 93 92 90 88 87 87 88 89 90 88 85 81 76 73 73 74 76 75 74 73 70 64 56 49 43 40 38 36 35 36 36 37 37 38 38 39 39 39 38 38 38 38 37 36 36 35 34 33 33 33 32 31 30 30 30 31 32 32 32 32 32 32 32 32 31 31 30 29 27 26 26 25 24 24 23 22 21 20 20 19 18 18 17 17 16 16 16 17 18 19 21 23 26
33 36 38 38 42 52 69 83 89 92 92 92 91 89 86 85 87 88 88 87 84 80 77 76 76 76 77 75 73 71 70 64 57 50 44 40 39 39 38 38 37 37 37 37 38 39 40 40 41 40 40 39 39 38 37 36 35 33 33 32 31 30 29 28 28 29 29 30 31 31 31 31 31 31 30 30 29 29 27 27 26 25 25 24 23 22 21 20 20 19 18 18 17 16 16 16 17 17 18 20 22 25 29
36 38 38 38 43 56 76 85 90 91 91 91 90 88 81 81 83 85 86 84 82 79 79 78 78 78 77 75 72 70 68 64 59 52 45 40 38 38 40 38 37 37 38 37 37 38 40 41 42 42 41 41 40 40 39 38 36 35 33 33 32 31 29 29 28 28 27 28 29 30 30 30 30 30 30 29 29 28 28 27 26 26 25 24 23 22 21 20 20 19 18 17 17 16 17 17 18 19 20 22 25 29 34
39 41 39 38 46 60 80 86 90 91 90 90 89 85 77 76 79 82 83 82 81 80 81 80 79 78 77 75 73 71 69 66 61 54 47 42 39 37 38 38 38 38 38 38 37 37 39 41 42 42 41 42 41 41 40 38 37 36 35 33 32 31 30 30 29 29 28 29 29 29 30 30 30 30 30 30 29 29 28 28 27 27 26 25 24 23 21 20 19 19 18 17 17 17 17 18 19 20 22 25 29 34 38
41 44 41 40 51 66 82 87 90 92 91 89 86 81 75 75 77 80 82 83 83 83 83 81 80 79 78 76 75 73 71 69 64 58 51 45 42 40 38 38 38 37 36 36 35 35 36 38 40 41 41 41 41 41 41 40 38 37 36 34 33 32 31 31 31 31 31 30 30 30 29 30 30 30 31 30 30 30 29 28 28 28 27 26 25 23 22 20 19 18 18 18 18 18 18 19 21 23 25 29 33 37 42
44 45 42 44 55 70 82 88 90 91 91 88 84 78 73 74 77 80 82 86 87 86 83 81 80 80 79 77 76 75 74 72 68 63 56 50 46 43 41 39 37 35 35 34 34 34 36 38 39 39 38 41 41 41 42 41 40 38 37 35 34 34 33 33 33 33 33 33 32 31 30 29 30 30 31 31 30 30 30 30 29 29 28 27 25 24 22 21 19 18 18 18 18 19 20 21 23 25 28 32 36 40 44
45 47 44 49 60 74 83 87 90 91 90 86 80 76 71 74 77 81 84 88 90 88 84 81 80 80 79 78 77 76 75 74 71 66 61 55 50 47 43 41 39 37 35 34 33 34 36 39 39 38 37 41 42 42 42 42 41 39 37 36 35 35 35 35 35 35 35 34 33 33 32 30 30 30 30 31 31 31 31 31 30 29 28 27 26 25 23 21 20 19 18 19 19 20 21 23 25 28 31 34 38 42 45
47 49 47 54 65 76 84 87 90 91 88 84 78 73 69 73 78 84 88 90 90 88 85 81 80 79 79 78 77 77 76 74 72 68 64 59 55 51 47 44 41 39 37 35 34 33 34 36 36 36 37 40 42 43 43 42 41 40 38 37 36 36 36 36 37 36 36 35 35 34 33 31 30 29 30 30 31 31 31 31 31 30 29 28 27 25 24 22 21 19 19 19 20 22 23 25 27 30 33 36 39 43 46
49 50 49 57 69 79 84 88 90 90 87 82 76 70 67 73 80 86 90 90 90 89 85 81 80 79 79 78 78 77 77 76 73 70 65 61 57 54 50 47 44 41 38 36 34 33 34 33 33 33 35 37 40 42 43 43 42 41 39 38 38 38 38 38 38 38 38 37 36 35 34 33 31 30 30 30 30 30 31 31 31 30 30 29 27 26 25 23 22 20 20 20 22 24 26 27 29 32 34 37 40 43 46